Flag for U.S.A. Weather past 2 weeks in Spartanburg, South Carolina, U.S.A.

Now
79 °F

Clear.


Feels Like: 83 °F
Forecast: 73 / 95 °F
Wind: No wind

Location: Spartanburg Memorial

Current Time: Aug 22, 2014 at 2:18:42 AM

Latest Report: Aug 22, 2014 at 2:15 AM


Visibility: 10 mi

Pressure: 30.08 "Hg

Humidity: 100%

Dew point: 79 °F

Location of SpartanburgLocation

Historic Weather in Spartanburg — Graph

°F

Spartanburg temperature yesterday

Maximum temperature yesterday: 95 °F (at 4:15 PM)
Minimum temperature yesterday: 68 °F (at 6:35 AM)
Average temperature yesterday: 82 °F

Past Weeks' High & Low Weather Summary

 TemperatureHumidityPressure
High95 °F (Aug 21, 4:15 PM)100% (Aug 7, 5:15 AM)30.15 "Hg (Aug 7, 5:15 AM)
Low63 °F (Aug 14, 6:15 AM)39% (Aug 21, 3:15 PM)29.80 "Hg (Aug 12, 6:15 PM)
Average77 °F80%30.00 "Hg
* Reported Aug 7 1:15 AM — Aug 22 1:15 AM, Spartanburg, Weather by CustomWeather, © 2014

Note: Actual official high and low records may vary slightly from our data, if they occured in-between our weather recording intervals... More about our weather records

Advertising

Spartanburg weather history for previous 24 hours

 ConditionsComfort  
Time TempWeatherWind HumidityBarometerVisibility
1:15 AM
Aug 22
77 °FClear.No wind100%30.09 "Hg10 mi
12:35 AM79 °FClear.No wind94%30.09 "Hg10 mi
12:15 AM77 °FClear.No wind100%30.08 "Hg10 mi
11:35 PM
Aug 21
77 °FClear.No wind100%30.09 "Hg10 mi
11:15 PM79 °FClear.No wind94%30.08 "Hg10 mi
10:35 PM79 °FClear.No wind94%30.09 "Hg10 mi
10:15 PM81 °FClear.No wind84%30.09 "Hg10 mi
9:35 PM82 °FClear.No wind74%30.09 "Hg10 mi
9:15 PM81 °FClear.No wind84%30.09 "Hg10 mi
8:35 PM84 °FSunny.No wind70%30.08 "Hg10 mi
8:15 PM88 °FSunny.No wind62%30.08 "Hg10 mi
7:35 PM90 °FSunny.No wind55%30.07 "Hg10 mi
7:15 PM91 °FSunny.3 mph52%30.07 "Hg10 mi
6:35 PM91 °FSunny.No wind49%30.07 "Hg10 mi
6:15 PM91 °FSunny.No wind46%30.07 "Hg10 mi
5:35 PM93 °FSunny.5 mph44%30.07 "Hg10 mi
5:15 PM91 °FSunny.3 mph46%30.07 "Hg10 mi
4:35 PM95 °FScattered clouds.7 mph41%30.08 "Hg10 mi
4:15 PM95 °FSunny.6 mph39%30.08 "Hg10 mi
3:35 PM93 °FSunny.No wind39%30.10 "Hg10 mi
3:15 PM93 °FSunny.6 mph39%30.11 "Hg10 mi
2:35 PM93 °FSunny.5 mph41%30.11 "Hg10 mi
2:15 PM91 °FSunny.No wind41%30.11 "Hg10 mi
1:35 PM93 °FSunny.3 mph44%30.13 "Hg10 mi
1:15 PM90 °FSunny.3 mph43%30.13 "Hg10 mi
12:35 PM90 °FSunny.No wind46%30.13 "Hg10 mi
12:15 PM90 °FSunny.No wind43%30.13 "Hg10 mi
11:35 AM88 °FSunny.No wind49%30.14 "Hg10 mi
11:15 AM88 °FSunny.No wind52%30.13 "Hg10 mi
10:35 AM82 °FSunny.No wind58%30.13 "Hg10 mi
10:15 AM82 °FSunny.No wind55%30.12 "Hg10 mi
9:35 AM81 °FSunny.3 mph62%30.12 "Hg10 mi
9:15 AM79 °FSunny.No wind61%30.11 "Hg10 mi
8:35 AM77 °FSunny.No wind65%30.11 "Hg10 mi
8:15 AM72 °FSunny.No wind94%30.11 "Hg10 mi
7:35 AM68 °FClear.No wind100%30.10 "Hg10 mi
7:15 AM68 °FClear.No wind100%30.09 "Hg10 mi
6:35 AM68 °FClear.No wind100%30.07 "Hg10 mi
6:15 AM70 °FClear.No wind100%30.07 "Hg10 mi
5:35 AM70 °FClear.No wind94%30.06 "Hg10 mi
5:15 AM70 °FClear.No wind83%30.05 "Hg10 mi
4:35 AM72 °FClear.No wind78%30.04 "Hg10 mi
4:15 AM73 °FClear.6 mph74%30.04 "Hg10 mi
3:35 AM72 °FClear.No wind78%30.04 "Hg10 mi
3:15 AM72 °FClear.No wind78%30.03 "Hg10 mi
2:35 AM73 °FClear.No wind69%30.04 "Hg10 mi
2:15 AM73 °FClear.5 mph74%30.04 "Hg10 mi
Weather by CustomWeather, © 2014

See weather overviewHow to use our weather pages